Goodland, KS

6:35 AM MDT on March 23, 2017 (GMT -0600)
Renner-Goodland Municipal

Weather History for KGLD - March, 2013

Change the Weather History Date:

Friday, March 29, 2013

  Actual Average Record
Temperature  
Mean Temperature 54 °F 44 °F  
Max Temperature 70 °F 59 °F 88 °F (1943)
Min Temperature 37 °F 30 °F 2 °F (1987)
Degree Days  
Heating Degree Days 11 21  
Month to date heating degree days 817 717  
Since 1 July heating degree days 5104 5134  
Cooling Degree Days 0 0  
Month to date cooling degree days 0 0  
Year to date cooling degree days 0 0  
Growing Degree Days 4 (Base 50)    
Moisture  
Dew Point 40 °F    
Average Humidity 60    
Maximum Humidity 85    
Minimum Humidity 35    
Precipitation  
Precipitation T in 0.05 in 0.33 in (2011)
Month to date precipitation 1.34 0.98  
Year to date precipitation 2.19 1.85  
Snow  
Snow 0.00 in 0.30 in - ()
Month to date snowfall 19.8 6.3  
Since 1 July snowfall 43.0 30.3  
Snow Depth 0.00 in    
Sea Level Pressure  
Sea Level Pressure 30.04 in    
Wind  
Wind Speed 11 mph (SSW)    
Max Wind Speed 22 mph    
Max Gust Speed 25 mph    
Visibility 10 miles    
Events      
T = Trace of Precipitation, MM = Missing Value Source: NWS Daily Summary

Daily Weather History Graph

Daily Weather History Graph

Search for Another Location

Airport or City:

Trip Planner

Search our weather history database for the weather conditions in past years. The results will help you decide how hot, cold, wet, or windy it might be!

Date:

Astronomy

Mar. 29, 2013 Rise Set
Actual Time 6:35 AM MDT 7:08 PM MDT
Civil Twilight 6:08 AM MDT 7:35 PM MDT
Nautical Twilight 5:36 AM MDT 8:06 PM MDT
Astronomical Twilight 5:04 AM MDT 8:39 PM MDT
Moon 10:09 PM MDT (3/29) 7:46 AM MDT (3/29)
Length of Visible Light 13h 26m
Length of Day
12h 32m
Waning Gibbous, 93% of the Moon is Illuminated
Mar 29
Waning Gibbous
Apr 2
Last Quarter
Apr 10
New
Apr 18
First Quarter
Apr 25
Full

Hourly Weather History & Observations

Time (MDT) Temp. Windchill Dew Point Humidity Pressure Visibility Wind Dir Wind Speed Gust Speed Precip Events Conditions
12:53 AM 39.9 °F 32.9 °F 33.1 °F 77% 30.11 in 10.0 mi South 11.5 mph - N/A   Clear
1:53 AM 39.9 °F 33.9 °F 33.1 °F 77% 30.11 in 10.0 mi South 9.2 mph - N/A   Clear
2:53 AM 37.9 °F 31.5 °F 33.1 °F 83% 30.10 in 10.0 mi South 9.2 mph - N/A   Clear
3:53 AM 42.1 °F 36.6 °F 34.0 °F 73% 30.09 in 10.0 mi South 9.2 mph - N/A   Clear
4:53 AM 41.0 °F 34.7 °F 35.1 °F 79% 30.09 in 10.0 mi SSW 10.4 mph - N/A   Clear
5:53 AM 39.9 °F 35.1 °F 35.1 °F 83% 30.09 in 10.0 mi SW 6.9 mph - N/A   Clear
6:53 AM 43.0 °F 39.5 °F 37.0 °F 80% 30.12 in 10.0 mi SW 5.8 mph - N/A   Scattered Clouds
7:53 AM 48.0 °F - 39.9 °F 74% 30.12 in 10.0 mi SW 10.4 mph - N/A   Partly Cloudy
8:53 AM 52.0 °F - 43.0 °F 71% 30.11 in 10.0 mi SSW 10.4 mph - N/A   Partly Cloudy
9:53 AM 57.0 °F - 44.1 °F 62% 30.09 in 10.0 mi South 13.8 mph - N/A   Mostly Cloudy
10:53 AM 60.1 °F - 43.0 °F 53% 30.10 in 10.0 mi South 5.8 mph - N/A   Mostly Cloudy
11:53 AM 64.0 °F - 39.9 °F 41% 30.08 in 10.0 mi South 15.0 mph 18.4 mph N/A   Clear
12:53 PM 64.9 °F - 39.9 °F 40% 30.05 in 10.0 mi SSE 11.5 mph 23.0 mph N/A   Clear
1:53 PM 66.9 °F - 39.9 °F 37% 30.02 in 10.0 mi South 15.0 mph 23.0 mph N/A   Clear
2:53 PM 66.9 °F - 39.9 °F 37% 30.00 in 10.0 mi South 12.7 mph 21.9 mph N/A   Clear
3:53 PM 68.0 °F - 39.9 °F 36% 29.97 in 10.0 mi SSE 16.1 mph 19.6 mph N/A   Clear
4:53 PM 66.9 °F - 41.0 °F 39% 29.95 in 10.0 mi SSE 17.3 mph 25.3 mph N/A   Clear
5:53 PM 66.9 °F - 41.0 °F 39% 29.94 in 10.0 mi South 6.9 mph - N/A   Mostly Cloudy
6:53 PM 60.1 °F - 43.0 °F 53% 29.95 in 10.0 mi South 9.2 mph - N/A   Clear
7:53 PM 55.9 °F - 42.1 °F 60% 29.96 in 10.0 mi South 13.8 mph - N/A   Clear
8:53 PM 55.0 °F - 44.1 °F 67% 29.98 in 10.0 mi SW 13.8 mph - N/A   Clear
9:53 PM 54.0 °F - 43.0 °F 66% 29.99 in 10.0 mi SW 12.7 mph - N/A   Clear
10:53 PM 53.1 °F - 42.1 °F 66% 29.99 in 10.0 mi WSW 12.7 mph - N/A   Mostly Cloudy
11:53 PM 54.0 °F - 42.1 °F 64% 29.96 in 10.0 mi SW 11.5 mph - 0.00 in   Partly Cloudy